Torna al catalogo

BEIDOU 15

AttivoNavigazioneMEO
NORAD 38775·PAYLOAD·🇨🇳 China

Lanciato Sep 18, 2012 da Xichang Satellite Launch Center

Loading…

Prossimi Passaggi (prossime 24 ore)

TLE

AggiornatoSource: Space-Track

Epoca: Sep 14, 2026, 12:03 UTC

1 38775U 12050B   26257.50230771 -.00000048  00000-0  00000-0 0  9998
2 38775  56.6267  59.9458 0010921   4.1523 355.8681  1.86230944 94974

Traccia BEIDOU 15 in tempo reale con AllMySat

Download on the App Store